This is the latest recevied weather packets stored in our database for station/object KI5UTS-13. If no packets are shown the sender has not sent any weather packets the latest 10 day(s).
| Time | Temp. | Humidity | Pressure | Rain* | Wind** | Luminosity | Snow |
|---|---|---|---|---|---|---|---|
| 1788440920 | 27.78° C | 89% | 1017.2 hPa | 0 mm | - | 76 W/m² | - |
| 1788440615 | 27.22° C | 90% | 1017.6 hPa | 0 mm | - | 69 W/m² | - |
| 1788440314 | 27.22° C | 92% | 1017.6 hPa | 0 mm | - | 73 W/m² | - |
| 1788440010 | 26.67° C | 93% | 1017.5 hPa | 0 mm | - | 65 W/m² | - |
| 1788439708 | 26.67° C | 95% | 1017.6 hPa | 0 mm | - | 59 W/m² | - |
| 1788439404 | 26.11° C | 96% | 1017.4 hPa | 0 mm | - | 55 W/m² | - |
| 1788439102 | 26.11° C | 96% | 1017.3 hPa | 0 mm | - | 46 W/m² | - |
| 1788438798 | 25.56° C | 97% | 1017.4 hPa | 0 mm | - | 42 W/m² | - |
| 1788438496 | 25.56° C | 97% | 1017.6 hPa | 0 mm | - | 42 W/m² | - |
| 1788438191 | 25.56° C | 97% | 1017.5 hPa | 0 mm | - | 38 W/m² | - |
| 1788437889 | 25° C | 97% | 1017.4 hPa | 0 mm | - | 34 W/m² | - |
| 1788437585 | 25° C | 97% | 1017.5 hPa | 0 mm | - | 29 W/m² | - |
| 1788437280 | 25° C | 97% | 1017.7 hPa | 0 mm | - | 25 W/m² | - |
| 1788436974 | 25° C | 98% | 1017.5 hPa | 0 mm | - | 21 W/m² | - |
| 1788436673 | 25° C | 98% | 1017.3 hPa | 0 mm | - | 16 W/m² | - |
| 1788436368 | 25° C | 97% | 1017.2 hPa | 0 mm | - | 12 W/m² | - |
| 1788436062 | 25° C | 97% | 1017.3 hPa | 0 mm | - | 9 W/m² | - |
| 1788435758 | 25° C | 97% | 1017.3 hPa | 0 mm | - | 4 W/m² | - |
| 1788435453 | 25° C | 97% | 1017.3 hPa | 0 mm | - | 1 W/m² | - |
| 1788435149 | 25° C | 97% | 1017 hPa | 0 mm | - | 0 W/m² | - |
| 1788434854 | 25° C | 97% | 1017.1 hPa | 0 mm | - | 0 W/m² | - |
| 1788434540 | 25° C | 97% | 1016.9 hPa | 0 mm | - | 0 W/m² | - |
| 1788434239 | 25° C | 97% | 1016.9 hPa | 0 mm | - | 0 W/m² | - |
| 1788433935 | 25° C | 97% | 1017 hPa | 0 mm | - | 0 W/m² | - |
| 1788433630 | 25° C | 97% | 1017 hPa | 0 mm | - | 0 W/m² | - |
* Rain latest hour (hover to see other rain measurements)
** Current wind speed in m/s (hover to see current wind gust speed)